Waupaca, WI

3:43 AM CDT on May 27, 2017 (GMT -0500)
Waupaca Municipal

Weather History for KPCZ - April, 2014

Change the Weather History Date:

Thursday, April 10, 2014

  Actual Average Record
Temperature  
Mean Temperature 52 °F -  
Max Temperature 64 °F 53 °F 82 °F (1955)
Min Temperature 37 °F 30 °F 17 °F (1989)
Degree Days  
Heating Degree Days 14    
Growing Degree Days 2 (Base 50)    
Moisture  
Dew Point 22 °F    
Average Humidity 30    
Maximum Humidity 61    
Minimum Humidity 11    
Precipitation  
Precipitation 0.00 in - - ()
Sea Level Pressure  
Sea Level Pressure 29.70 in    
Wind  
Wind Speed 12 mph (West)    
Max Wind Speed 22 mph    
Max Gust Speed 31 mph    
Visibility 10 miles    
Events      
Averages and records for this station are not official NWS values.
T = Trace of Precipitation, MM = Missing Value Source: NWS Daily Summary

Daily Weather History Graph

Daily Weather History Graph

Search for Another Location

Airport or City:

Trip Planner

Search our weather history database for the weather conditions in past years. The results will help you decide how hot, cold, wet, or windy it might be!

Date:

Astronomy

Apr. 10, 2014 Rise Set
Actual Time 6:21 AM CDT 7:34 PM CDT
Civil Twilight 5:51 AM CDT 8:04 PM CDT
Nautical Twilight 5:15 AM CDT 8:40 PM CDT
Astronomical Twilight 4:37 AM CDT 9:18 PM CDT
Moon 3:09 PM CDT (4/10) 3:53 AM CDT (4/10)
Length of Visible Light 14h 13m
Length of Day
13h 13m
Waxing Gibbous, 80% of the Moon is Illuminated
Apr 10
Waxing Gibbous
Apr 15
Full
Apr 22
Last Quarter
Apr 29
New
May 6
First Quarter

Hourly Weather History & Observations

Time (CDT) Temp. Windchill Dew Point Humidity Pressure Visibility Wind Dir Wind Speed Gust Speed Precip Events Conditions
12:18 AM 55.4 °F - 28.4 °F 36% 29.60 in 10.0 mi SSW 12.7 mph 21.9 mph N/A   Clear
12:38 AM 55.4 °F - 28.4 °F 36% 29.59 in 10.0 mi SSW 11.5 mph 19.6 mph N/A   Clear
12:58 AM 55.4 °F - 28.4 °F 36% 29.58 in 10.0 mi SSW 15.0 mph 19.6 mph N/A   Clear
1:18 AM 57.2 °F - 28.4 °F 33% 29.58 in 10.0 mi SSW 16.1 mph 21.9 mph N/A   Clear
1:38 AM 57.2 °F - 28.4 °F 33% 29.58 in 10.0 mi SSW 15.0 mph 21.9 mph N/A   Clear
1:58 AM 57.2 °F - 30.2 °F 36% 29.58 in 10.0 mi SW 15.0 mph - N/A   Clear
2:18 AM 57.2 °F - 30.2 °F 36% 29.57 in 10.0 mi SSW 12.7 mph - N/A   Scattered Clouds
2:38 AM 57.2 °F - 30.2 °F 36% 29.56 in 10.0 mi SSW 11.5 mph - N/A   Scattered Clouds
2:58 AM 57.2 °F - 30.2 °F 36% 29.55 in 10.0 mi SSW 12.7 mph - N/A   Scattered Clouds
3:18 AM 55.4 °F - 30.2 °F 38% 29.54 in 10.0 mi SSW 12.7 mph 16.1 mph N/A   Clear
3:38 AM 57.2 °F - 30.2 °F 36% 29.55 in 10.0 mi SW 10.4 mph - N/A   Scattered Clouds
3:58 AM 57.2 °F - 30.2 °F 36% 29.54 in 10.0 mi SW 11.5 mph - N/A   Scattered Clouds
4:18 AM 57.2 °F - 30.2 °F 36% 29.55 in 10.0 mi SW 10.4 mph - N/A   Scattered Clouds
4:38 AM 57.2 °F - 30.2 °F 36% 29.55 in 10.0 mi WSW 11.5 mph 19.6 mph N/A   Scattered Clouds
4:58 AM 57.2 °F - 32.0 °F 38% 29.56 in 10.0 mi WSW 13.8 mph - N/A   Scattered Clouds
5:18 AM 57.2 °F - 32.0 °F 38% 29.57 in 10.0 mi WSW 11.5 mph 21.9 mph N/A   Clear
5:38 AM 57.2 °F - 32.0 °F 38% 29.56 in 10.0 mi WSW 11.5 mph 16.1 mph N/A   Clear
5:58 AM 57.2 °F - 33.8 °F 41% 29.57 in 10.0 mi West 9.2 mph - N/A   Clear
6:18 AM 55.4 °F - 33.8 °F 44% 29.59 in 10.0 mi West 8.1 mph - N/A   Clear
6:38 AM 57.2 °F - 35.6 °F 44% 29.59 in 10.0 mi West 9.2 mph - N/A   Clear
7:18 AM 55.4 °F - 37.4 °F 51% 29.61 in 10.0 mi WNW 6.9 mph 16.1 mph N/A   Clear
7:38 AM 55.4 °F - 37.4 °F 51% 29.63 in 10.0 mi WNW 10.4 mph - N/A   Clear
7:58 AM 55.4 °F - 37.4 °F 51% 29.62 in 10.0 mi WNW 8.1 mph - N/A   Clear
8:58 AM 55.4 °F - 37.4 °F 51% 29.64 in 10.0 mi WNW 10.4 mph - N/A   Clear
9:18 AM 53.6 °F - 33.8 °F 47% 29.64 in 10.0 mi West 11.5 mph 19.6 mph N/A   Mostly Cloudy
9:38 AM 53.6 °F - 33.8 °F 47% 29.65 in 10.0 mi NW 12.7 mph 21.9 mph N/A   Scattered Clouds
10:01 AM 53.6 °F - 33.8 °F 47% 29.67 in 10.0 mi WNW 10.4 mph 21.9 mph N/A   Scattered Clouds
10:18 AM 53.6 °F - 32.0 °F 44% 29.68 in 10.0 mi WNW 15.0 mph 24.2 mph N/A   Mostly Cloudy
10:38 AM 53.6 °F - 28.4 °F 38% 29.68 in 10.0 mi WNW 12.7 mph 20.7 mph N/A   Mostly Cloudy
10:58 AM 55.4 °F - 26.6 °F 33% 29.68 in 10.0 mi WNW 10.4 mph 24.2 mph N/A   Scattered Clouds
11:18 AM 57.2 °F - 21.2 °F 25% 29.68 in 10.0 mi WNW 9.2 mph 18.4 mph N/A   Clear
11:38 AM 59.0 °F - 19.4 °F 22% 29.69 in 10.0 mi West 16.1 mph 23.0 mph N/A   Clear
11:59 AM 60.8 °F - 19.4 °F 20% 29.69 in 10.0 mi West 17.3 mph 24.2 mph N/A   Clear
12:18 PM 59.0 °F - 17.6 °F 20% 29.70 in 10.0 mi WNW 12.7 mph 23.0 mph N/A   Clear
12:59 PM 60.8 °F - 17.6 °F 19% 29.70 in 10.0 mi West 15.0 mph 27.6 mph N/A   Clear
1:18 PM 60.8 °F - 15.8 °F 17% 29.71 in 10.0 mi West 16.1 mph 25.3 mph N/A   Clear
1:39 PM 62.6 °F - 15.8 °F 16% 29.71 in 10.0 mi NW 20.7 mph 25.3 mph N/A   Clear
1:59 PM 62.6 °F - 14.0 °F 15% 29.71 in 10.0 mi West 17.3 mph 28.8 mph N/A   Clear
2:19 PM 62.6 °F - 10.4 °F 13% 29.71 in 10.0 mi West 21.9 mph 27.6 mph N/A   Clear
2:39 PM 62.6 °F - 12.2 °F 14% 29.71 in 10.0 mi WNW 16.1 mph 28.8 mph N/A   Clear
2:58 PM 62.6 °F - 10.4 °F 13% 29.72 in 10.0 mi WNW 18.4 mph 31.1 mph N/A   Clear
3:18 PM 64.4 °F - 12.2 °F 13% 29.72 in 10.0 mi WNW 17.3 mph 26.5 mph N/A   Clear
3:38 PM 64.4 °F - 10.4 °F 12% 29.72 in 10.0 mi West 16.1 mph 27.6 mph N/A   Clear
3:58 PM 64.4 °F - 10.4 °F 12% 29.72 in 10.0 mi West 15.0 mph 29.9 mph N/A   Clear
4:20 PM 64.4 °F - 8.6 °F 11% 29.73 in 10.0 mi WNW 19.6 mph 31.1 mph N/A   Clear
4:38 PM 64.4 °F - 8.6 °F 11% 29.73 in 10.0 mi WNW 15.0 mph 27.6 mph N/A   Clear
4:58 PM 62.6 °F - 10.4 °F 13% 29.75 in 10.0 mi WNW 17.3 mph 28.8 mph N/A   Clear
5:18 PM 62.6 °F - 10.4 °F 13% 29.76 in 10.0 mi WNW 16.1 mph 27.6 mph N/A   Clear
5:39 PM 60.8 °F - 8.6 °F 13% 29.78 in 10.0 mi WNW 13.8 mph 27.6 mph N/A   Clear
5:58 PM 60.8 °F - 10.4 °F 14% 29.79 in 10.0 mi WNW 17.3 mph 26.5 mph N/A   Clear
6:38 PM 59.0 °F - 5.0 °F 12% 29.81 in 10.0 mi NW 15.0 mph 25.3 mph N/A   Clear
6:58 PM 57.2 °F - 8.6 °F 14% 29.82 in 10.0 mi WNW 11.5 mph 18.4 mph N/A   Clear
7:18 PM 57.2 °F - 10.4 °F 16% 29.83 in 10.0 mi WNW 10.4 mph - N/A   Clear
7:38 PM 55.4 °F - 10.4 °F 17% 29.84 in 10.0 mi NW 10.4 mph - N/A   Clear
7:58 PM 53.6 °F - 10.4 °F 18% 29.85 in 10.0 mi NW 6.9 mph - N/A   Clear
8:19 PM 53.6 °F - 10.4 °F 18% 29.86 in 10.0 mi NW 4.6 mph - N/A   Clear
8:38 PM 53.6 °F - 12.2 °F 19% 29.88 in 10.0 mi WNW 4.6 mph - N/A   Clear
8:58 PM 51.8 °F - 12.2 °F 21% 29.89 in 10.0 mi NW 4.6 mph - N/A   Clear
9:18 PM 51.8 °F - 12.2 °F 21% 29.89 in 10.0 mi WNW 3.5 mph - N/A   Clear
9:58 PM 48.2 °F - 14.0 °F 25% 29.90 in 10.0 mi WSW 3.5 mph - N/A   Clear
10:20 PM 44.6 °F 43.1 °F 15.8 °F 31% 29.91 in 10.0 mi SW 3.5 mph - N/A   Clear
10:58 PM 42.8 °F 40.1 °F 17.6 °F 36% 29.92 in 10.0 mi West 4.6 mph - N/A   Clear
11:18 PM 39.2 °F - 26.6 °F 61% 29.92 in 10.0 mi Calm Calm - N/A   Clear
11:38 PM 39.2 °F - 21.2 °F 49% 29.93 in 10.0 mi Calm Calm - N/A   Clear
11:58 PM 37.4 °F - 21.2 °F 52% 29.93 in 10.0 mi Calm Calm - N/A   Clear